User: anonymous
Location: Fort Wayne
(41.1310°N, 85.1290°W)
Time: 21:51:09
(UTC-04:00)
Language:

Cosmos 2056 Rocket - Orbit

View from above orbital plane
View from above orbital plane
View from above satellite
View from above satellite

Ground track
Ground track

The orbit data is extracted from the following two-line orbital elements,

1 20433U 90004B   14203.16389235  .00000045  00000-0  24268-4 0  7726
2 20433 074.0372 143.6172 0040948 173.1660 287.0816 14.35648011282917
Epoch (UTC): 22 July 2014 03:56:00
Eccentricity: 0.0040948
inclination: 74.0372°
perigee height: 743 km
apogee height: 802 km
right ascension of ascending node: 143.6172°
argument of perigee: 173.1660°
revolutions per day: 14.35648011
mean anomaly at epoch: 287.0816°
orbit number at epoch: 28291

The dashed part of the orbit path shows where the satellite is in the earth's shadow,  

DLR